• Join FlightAware (Why Join?)
  • Login
  • US Flag 
11:59PM EST


 

Airport Tracker/Info


-or-


 

Live Flight TrackerFlight Track Log ✈ SWA624 ✈ 01-Nov-2013 ✈ KLAS - KSAN

Flight Track Log - Related Links

Times and Time Zones

All times are in EDT time to prevent confusion due to time zone crossing. See the SWA624 flight status page for this flight to view local times or setup timezone preferences in your user account.

Time Position Orientation Groundspeed Altitude Reporting Facility
EDT Latitude Longitude Course Direction KTS MPH feet Rate Location/Type
11:13AM 36.0714 -115.2361 263° West 226 260 5,300  Level Los Angeles Center
11:14AM 36.0244 -115.2783 216° Southwest 275 316 7,100 2,204 Climbing Los Angeles Center
11:14AM 36.0278 -115.2750 39° Northeast 273 314 7,100 2,836 Level Los Angeles Center
11:14AM 35.9544 -115.3039 198° South 300 345 9,700 2,903 Climbing Los Angeles Center
11:15AM 35.9425 -115.3044 182° South 293 337 10,100 2,571 Climbing Los Angeles Center
11:16AM 35.8497 -115.3139 185° South 319 367 12,700 2,710 Climbing Los Angeles Center
11:17AM 35.7519 -115.3033 175° South 338 389 15,700 2,516 Climbing Los Angeles Center
11:18AM 35.6494 -115.2925 175° South 354 407 17,900 2,129 Climbing Los Angeles Center
11:19AM 35.5411 -115.2958 181° South 371 427 20,100 2,177 Climbing Los Angeles Center
11:20AM 35.4272 -115.3031 183° South 391 450 22,400 2,468 Climbing Los Angeles Center
11:21AM 35.2897 -115.3086 182° South 404 465 25,200 1,920 Climbing Los Angeles Center
11:22AM 35.1786 -115.3300 189° South 418 481 26,400 1,152 Climbing Los Angeles Center
11:23AM 35.0589 -115.3750 197° South 439 505 27,600 774 Climbing Los Angeles Center
11:24AM 34.9392 -115.4203 197° South 445 512 28,000 194 Climbing Los Angeles Center
11:25AM 34.8189 -115.4664 197° South 448 516 28,000  Level Los Angeles Center
11:26AM 34.6969 -115.5086 196° South 453 521 28,000 -48 Level Los Angeles Center
11:27AM 34.5550 -115.5625 197° South 452 520 27,900  Descending Los Angeles Center
11:28AM 34.4353 -115.6086 198° South 453 521 28,000  Climbing Los Angeles Center
11:29AM 34.3142 -115.6522 197° South 453 521 27,900 -97 Descending Los Angeles Center
11:30AM 34.1947 -115.6950 197° South 450 518 27,800 -576 Descending Los Angeles Center
11:31AM 34.0775 -115.7386 197° South 444 511 26,700 -1,056 Descending Los Angeles Center
11:32AM 33.9667 -115.7783 197° South 425 489 25,600 -1,065 Descending Los Angeles Center
11:33AM 33.8364 -115.8269 197° South 412 474 24,500 -774 Descending Los Angeles Center
11:34AM 33.7267 -115.8667 197° South 411 473 24,000 -242 Descending Los Angeles Center
11:35AM 33.6172 -115.9058 197° South 411 473 24,000  Level Los Angeles Center
11:36AM 33.5094 -115.9478 198° South 408 470 24,000 -435 Level Los Angeles Center
11:37AM 33.4214 -116.0347 220° Southwest 410 472 23,100 -1,742 Descending Los Angeles Center
11:38AM 33.3175 -116.1383 220° Southwest 406 467 20,400 -2,371 Descending Los Angeles Center
11:39AM 33.2344 -116.2200 219° Southwest 395 455 18,200 -2,064 Descending Los Angeles Center
11:41AM 33.1536 -116.2989 219° Southwest 382 440 16,100 -2,112 Descending Los Angeles Center
11:42AM 33.0744 -116.3767 219° Southwest 372 428 13,800 -1,984 Descending Los Angeles Center
11:43AM 32.9944 -116.4503 218° Southwest 359 413 12,000 -871 Descending Los Angeles Center
11:44AM 32.9106 -116.4992 206° Southwest 338 389 12,000 -871 Level Los Angeles Center
11:45AM 32.8281 -116.5647 214° Southwest 330 380 10,200 -1,597 Descending Los Angeles Center
11:46AM 32.7867 -116.6511 240° Southwest 306 352 8,700 -1,452 Descending Los Angeles Center
11:47AM 32.7475 -116.7342 241° Southwest 295 339 7,200 -1,548 Descending Los Angeles Center
11:48AM 32.7317 -116.8247 258° West 286 329 5,500 -1,774 Descending Los Angeles Center
11:49AM 32.7167 -116.9167 259° West 280 322 3,800 -1,274 Descending Southern California TRACON
11:50AM 32.7167 -117.0000 270° West 248 285 3,100 -900 Descending Southern California TRACON
11:51AM 32.7167 -117.0833 270° West 216 249 2,000 -950 Descending Southern California TRACON
11:52AM 32.7167 -117.1333 270° West 144 166 1,200 -800 Descending Southern California TRACON
11:53AM 32.7333 -117.1833 292° West 142 163 400 -800 Descending Southern California TRACON
11:55AM 32.7336 -117.1897 281° West  Level Estimated
12:02PM 32.7333 -117.1833 281° West  Level FlightAware Approximate